Tracking 30258 objects as of 19-Feb-2025
HD Live streaming from Space Station
objects crossing your sky now

STARLINK-5412

Track STARLINK-5412 now!
10-day predictions
STARLINK-5412 is classified as:


NORAD ID: 54806
Int'l Code: 2022-175BA
Perigee: 546.1 km
Apogee: 547.5 km
Inclination: 53.2 °
Period: 95.4 minutes
Semi major axis: 6917 km
RCS: Unknown
Launch date: December 17, 2022
Source: United States (US)
Launch site: AIR FORCE EASTERN TEST RANGE (AFETR)
Your satellite tracking list
Your tracking list is empty




NASA's NSSDC Master Catalog

Two Line Element Set (TLE):
1 54806U 22175BA  25050.41370990  .00006509  00000-0  42646-3 0  9990
2 54806  53.2178 309.3076 0001020  84.0223 276.0886 15.08855940122277
Source of the keplerian elements: AFSPC